Theta_e
304 304 303 303 303 303 303 303 303 302 304 304 305 306 312 314 314 314 317 314 313 307 308 309 309 306 316 318 319 317 315 317 318 324 323 322 320 320 321 319 320 321 320 320 320 321 321
303 303 303 302 303 303 303 303 302 302 303 304 305 305 307 312 314 314 316 315 313 309 309 309 309 309 311 316 315 316 316 316 320 324 324 321 321 319 319 319 319 318 319 319 319 319 319
302 302 303 303 303 302 302 302 302 302 301 302 303 304 305 309 312 314 315 316 313 309 310 310 309 309 312 311 309 308 312 316 319 323 322 322 321 320 320 320 319 319 320 319 319 318 319
303 303 302 303 302 302 301 302 301 302 301 302 303 303 302 305 310 313 314 317 313 309 311 311 308 309 311 309 309 310 313 318 321 320 322 322 320 319 318 317 317 318 319 321 319 318 318
303 304 303 302 302 302 301 302 301 301 301 302 302 302 303 303 306 310 314 316 312 310 312 312 311 309 311 309 309 309 312 317 318 315 317 319 318 316 316 318 319 318 320 320 319 317 318
304 303 302 302 303 302 302 301 300 301 300 301 300 302 302 303 302 308 313 316 312 309 312 313 311 311 311 311 310 309 312 316 315 314 315 316 315 316 316 318 320 318 319 317 317 317 317
303 303 303 302 302 302 301 301 301 301 300 300 301 302 302 302 303 306 310 315 311 311 312 313 312 311 311 310 309 310 311 312 313 315 316 314 316 316 316 315 316 315 316 317 317 316 316
302 302 303 302 302 302 301 300 300 301 300 299 301 302 301 302 303 302 306 311 309 310 311 311 311 311 311 311 311 311 311 312 314 316 314 314 316 314 313 314 314 314 315 315 315 314 314
302 302 302 302 301 301 300 300 300 300 301 301 301 301 301 301 303 303 302 311 310 309 310 309 311 312 311 311 312 311 312 312 313 314 314 315 313 311 313 314 314 314 314 314 313 314 313
301 301 301 300 300 300 299 299 299 300 300 300 301 300 303 303 303 302 305 307 310 309 313 309 310 310 311 312 312 312 311 312 312 314 313 313 312 311 312 313 313 315 313 313 313 313 314
300 300 300 299 299 299 298 299 299 300 299 300 301 302 303 303 304 306 306 307 309 309 316 309 309 310 311 310 311 311 311 311 313 313 312 313 312 313 312 312 312 313 311 311 312 313 313
300 300 299 299 299 298 298 298 299 299 299 300 301 301 303 303 303 304 308 310 308 309 313 310 309 312 312 310 311 311 311 311 311 312 312 312 310 311 312 312 311 311 312 312 312 313 317
299 299 298 298 298 298 298 298 299 299 300 301 302 302 302 304 304 303 307 306 308 315 308 310 310 312 311 311 312 312 312 313 313 314 314 313 312 311 310 311 311 311 312 314 315 316 315
299 298 298 298 298 299 298 298 298 299 300 302 303 301 303 304 303 304 305 305 314 310 311 309 310 312 312 310 311 311 313 313 312 312 313 313 316 313 311 311 312 312 312 314 314 314 313
299 298 298 298 298 297 298 297 297 299 300 302 302 303 304 304 304 304 304 312 312 309 309 309 310 311 311 310 311 311 312 312 312 312 313 314 311 309 311 311 310 312 313 312 313 313 314
298 298 298 298 298 297 297 297 298 298 300 302 301 302 304 304 303 304 307 312 307 309 309 310 311 310 310 310 311 311 311 311 311 311 311 311 312 308 310 310 311 312 311 313 313 313 313
298 298 298 297 297 296 297 297 297 299 300 302 302 301 303 305 304 304 311 309 310 309 309 310 310 311 311 310 311 311 311 309 310 311 312 310 309 310 310 310 311 311 312 314 312 314 313
298 297 297 297 297 296 296 297 297 298 300 301 302 305 305 305 304 303 310 308 310 310 310 310 310 310 311 311 311 311 311 309 308 309 312 310 310 310 310 309 310 310 311 311 314 314 314
298 297 298 297 297 296 297 296 297 298 300 303 303 303 305 305 309 309 307 310 311 311 311 311 311 311 310 311 312 310 309 308 307 309 310 310 311 312 313 313 310 311 310 311 312 312 315
298 297 297 297 297 296 297 296 297 298 300 303 303 305 304 305 307 309 310 310 311 310 311 312 311 312 312 311 310 311 310 309 308 309 309 309 311 312 315 316 315 314 312 312 312 314 314
298 297 297 297 297 296 297 295 297 298 301 303 305 305 305 308 309 309 309 310 311 311 311 311 312 312 312 313 312 311 310 310 309 308 309 310 312 311 311 311 312 313 313 313 313 312 313
297 298 297 297 297 296 296 295 297 297 301 301 301 303 305 307 308 308 308 310 311 311 311 312 312 312 312 313 312 313 312 312 312 310 311 311 313 313 313 313 314 315 315 315 314 314 313
297 297 296 297 297 296 296 295 296 297 301 300 301 301 303 307 309 309 310 308 310 311 310 311 311 312 312 312 311 312 311 310 311 311 311 312 312 313 316 314 315 320 318 317 316 313 313
297 296 296 296 296 294 296 296 295 296 299 300 301 301 303 309 309 310 309 309 309 310 313 312 311 312 313 312 312 312 313 313 313 313 312 313 313 313 315 316 324 320 316 315 317 315 314
296 296 296 296 296 295 295 295 296 295 298 300 302 302 304 310 309 309 309 310 311 310 311 311 312 312 312 312 313 314 315 314 314 314 314 313 313 317 318 319 317 319 317 318 316 318 314
295 295 295 296 296 295 295 295 295 294 298 301 302 302 304 309 310 309 309 309 310 311 311 311 311 311 311 313 314 317 316 315 316 314 311 313 313 315 317 319 321 320 314 316 314 319 313
294 295 294 295 295 295 293 295 294 292 297 299 301 302 303 307 310 309 310 311 312 311 313 311 312 312 311 313 314 317 315 314 317 317 315 315 314 316 317 318 318 315 312 314 319 317 311
291 294 294 293 293 294 295 295 293 291 296 297 299 302 301 303 310 309 309 310 311 312 313 311 311 311 312 314 315 316 316 315 316 315 316 318 318 318 317 318 320 312 315 318 314 311 310
291 293 294 293 290 293 293 291 291 293 295 296 299 302 303 303 310 311 310 310 310 310 311 310 311 312 312 313 313 314 316 315 315 317 312 318 316 319 318 318 314 312 313 312 310 309 309
Wind_Speed
21 23 23 25 24 25 25 26 26 28 28 26 25 23 19 15 20 20 22 15 14 14 12 9 7 8 14 10 11 5 4 6 13 21 17 14 11 8 8 5 7 12 9 8 10 10 13
21 22 24 24 24 26 25 25 27 29 28 24 24 25 20 18 17 21 21 19 13 13 12 9 7 8 10 12 11 18 6 2 7 19 17 15 9 7 4 5 9 2 6 10 10 14 14
23 22 23 25 25 26 26 27 27 27 27 25 22 25 22 16 17 20 20 21 13 13 12 10 8 9 9 10 7 9 13 8 7 16 20 14 12 7 7 5 5 6 10 12 15 15 14
22 22 25 26 26 27 26 27 28 29 27 26 27 23 21 24 18 17 22 25 17 13 13 9 8 7 7 6 13 10 13 11 9 10 13 15 11 9 2 3 2 4 5 5 4 3 6
25 25 26 26 28 26 27 27 27 30 29 29 25 22 21 18 20 14 22 28 20 15 14 11 10 7 4 5 9 12 16 13 14 13 12 12 11 6 5 5 5 8 8 9 10 8 7
25 27 27 27 28 28 29 28 26 29 29 28 26 22 20 19 21 20 18 24 21 19 15 15 8 4 7 4 7 14 19 18 13 14 11 7 4 6 7 8 8 6 10 10 11 2 8
27 27 28 29 29 32 31 29 27 28 28 24 24 23 22 21 22 24 13 18 19 10 19 7 9 3 5 8 10 13 19 15 13 13 8 6 5 11 15 14 13 5 8 11 10 9 17
28 29 30 33 31 31 31 28 28 29 28 26 26 27 27 25 25 21 22 17 30 14 10 17 8 7 6 9 5 11 20 12 14 13 9 5 12 13 8 12 13 13 15 17 16 14 13
30 31 31 32 33 32 30 30 27 28 29 28 28 29 26 34 22 23 27 21 31 24 6 9 17 9 8 9 6 16 20 10 12 12 16 9 2 5 13 14 13 16 17 15 17 17 19
30 33 32 32 34 32 31 29 27 28 30 26 30 31 39 21 20 19 21 23 30 10 3 9 12 13 13 7 5 12 20 9 5 12 11 9 12 6 9 12 13 15 12 14 13 11 6
31 31 33 34 33 33 31 29 27 29 29 27 31 34 30 11 8 12 16 18 28 13 7 12 8 10 14 14 12 8 16 5 9 9 7 5 7 12 15 12 12 7 5 7 9 12 13
32 34 33 34 34 31 30 28 27 30 28 30 34 38 22 11 16 13 11 28 24 5 6 7 8 13 15 17 7 8 11 4 5 7 9 10 2 5 8 10 13 3 6 10 10 8 9
32 31 32 35 32 31 29 27 26 30 27 30 39 42 14 12 12 17 17 28 5 4 7 8 9 11 15 10 9 10 12 10 7 5 8 7 16 7 7 6 6 12 4 3 4 6 8
30 32 34 33 31 30 29 28 30 27 29 33 35 32 8 10 14 14 15 3 4 7 7 6 12 17 8 18 8 9 12 10 12 4 2 5 4 13 11 14 4 15 13 6 6 6 7
35 34 33 31 31 30 28 29 27 27 32 42 38 6 3 8 12 20 22 3 1 6 12 13 12 8 5 11 5 8 10 6 9 12 6 5 4 3 10 8 12 6 10 14 15 22 14
34 32 32 31 30 29 28 29 29 26 31 37 28 4 3 6 10 21 6 4 0 5 18 16 6 7 8 13 8 10 12 7 9 14 13 2 4 5 4 7 13 13 1 5 6 6 12
31 30 31 30 30 30 29 31 29 27 33 33 20 3 3 11 16 15 3 2 5 14 12 3 6 9 8 12 9 11 8 2 10 10 17 7 4 3 3 13 13 9 7 7 8 10 8
30 31 30 30 30 31 29 31 29 27 34 38 11 2 10 33 5 2 3 2 7 8 5 3 6 9 13 13 11 9 9 5 9 12 10 13 4 9 15 10 12 17 13 20 9 11 8
30 31 30 29 30 31 30 31 28 30 36 31 8 3 8 4 3 3 2 3 6 4 2 2 4 3 4 8 6 7 5 2 12 12 11 12 6 4 4 3 7 9 16 23 19 12 19
31 30 29 29 28 28 29 31 27 30 33 9 2 2 5 2 3 9 11 6 5 4 4 6 6 6 6 5 2 6 6 3 11 13 8 15 5 7 9 13 4 9 17 17 18 11 21
28 30 29 29 27 27 28 33 26 29 29 9 5 3 2 2 6 8 6 3 9 4 3 3 3 3 4 4 5 4 7 3 5 11 9 9 5 11 20 23 22 23 28 25 19 25 15
28 27 28 26 26 26 26 30 25 25 34 17 8 5 8 2 9 9 4 5 5 4 3 3 2 6 5 3 4 5 4 6 6 10 11 7 5 5 16 21 20 22 21 20 19 18 23
24 26 24 24 25 24 25 28 25 23 33 12 19 10 2 5 4 7 5 6 7 4 1 3 2 3 5 5 8 9 11 10 4 5 11 5 3 3 7 12 24 8 5 9 9 7 11
24 26 24 22 23 24 23 25 25 20 23 23 18 10 4 3 5 7 7 6 7 7 3 4 3 2 3 0 4 10 14 16 15 15 14 6 4 3 8 14 4 4 9 9 10 14 11
23 23 23 21 21 21 22 23 23 19 18 21 14 2 4 1 8 9 5 8 7 6 2 2 2 3 3 4 2 3 3 3 8 14 16 16 11 3 4 4 11 5 8 4 3 6 10
20 21 21 21 20 20 19 20 21 18 19 17 7 9 6 3 7 6 9 12 7 6 4 4 6 9 7 2 1 2 2 1 1 3 3 7 10 5 2 4 4 3 5 4 2 6 15
19 20 21 20 20 20 19 19 21 17 17 17 11 8 5 5 4 14 12 11 6 5 2 1 2 3 8 3 3 3 3 1 2 3 4 3 3 8 5 4 8 5 6 3 4 7 15
18 19 19 19 18 17 17 18 19 16 15 16 11 9 11 6 4 8 10 5 6 7 4 4 1 3 3 3 2 2 2 2 3 2 4 7 6 4 4 4 5 0 4 3 3 9 7
18 17 19 20 20 19 18 19 17 16 15 14 12 11 10 8 3 3 8 10 13 14 10 12 2 2 3 2 3 2 3 2 2 3 3 4 4 1 5 4 2 4 9 8 8 8 4
Wind_Direction
358 351 353 349 349 345 343 340 342 332 331 328 327 289 286 304 263 260 248 252 279 268 243 236 226 207 186 201 230 198 191 206 213 201 190 177 185 194 205 200 207 232 247 246 250 249 255
352 351 349 350 345 343 343 343 336 331 331 327 324 316 279 286 275 256 244 242 257 260 237 230 224 205 203 218 234 227 197 215 202 192 187 187 196 198 181 210 227 240 256 263 260 256 262
351 353 346 343 342 336 335 337 333 332 327 320 319 317 311 299 303 251 240 230 237 242 227 223 217 209 221 232 233 219 214 217 199 195 187 179 178 172 175 188 223 261 278 268 257 252 261
341 341 341 339 336 329 331 331 331 328 324 313 317 312 300 276 287 262 244 227 223 217 213 206 207 208 239 241 221 183 175 177 158 187 192 190 186 171 180 148 182 258 264 274 117 193 229
340 335 332 330 325 325 328 326 325 325 322 312 311 314 304 302 287 283 227 224 204 202 202 192 197 197 244 223 215 204 182 156 161 138 137 147 149 143 162 219 244 220 259 240 280 247 268
333 332 331 331 326 329 325 322 325 322 318 306 314 314 307 295 281 273 213 222 189 183 181 178 190 205 225 201 181 179 176 165 144 137 124 145 155 188 213 206 233 248 231 244 253 193 267
329 330 332 323 325 325 322 321 324 324 318 311 315 314 305 300 296 250 272 184 154 171 177 199 191 153 136 141 142 172 172 156 153 174 183 181 194 211 221 225 245 273 267 265 270 277 299
331 330 326 330 324 323 324 322 323 322 322 323 319 311 305 298 300 278 253 257 169 174 183 192 154 197 146 158 137 165 165 166 179 200 182 180 230 232 230 231 239 253 265 269 276 273 280
330 327 326 325 323 321 324 323 323 324 325 320 318 305 289 299 294 273 244 227 184 149 108 181 199 194 194 178 181 178 175 168 182 173 193 197 129 231 213 224 234 238 249 264 270 292 289
331 327 325 323 322 325 328 324 325 325 324 319 313 314 312 291 278 255 232 233 179 162 132 166 185 215 198 163 215 175 176 164 174 198 187 233 230 202 195 224 228 256 258 259 268 284 272
333 329 328 323 328 331 330 327 329 330 325 322 322 323 329 269 222 224 219 216 178 159 188 139 151 165 181 178 138 171 181 186 177 165 175 190 193 210 225 230 220 238 221 236 261 266 283
336 334 332 332 333 335 332 329 333 328 326 321 332 332 309 263 221 225 209 184 158 144 202 153 138 168 160 188 152 136 174 189 188 204 229 252 192 206 211 219 216 63 228 249 257 256 247
341 337 337 336 338 336 333 334 335 329 327 332 335 330 285 234 220 205 178 143 128 223 167 148 165 160 167 164 161 159 178 175 176 172 216 225 231 216 204 215 224 218 171 253 235 208 249
335 335 337 340 340 336 338 341 336 334 332 338 336 329 277 217 201 196 174 131 183 118 132 157 147 146 164 154 171 164 168 189 212 192 126 218 225 204 183 214 219 205 212 229 258 239 294
336 340 340 343 344 340 342 341 341 334 337 339 336 340 172 203 206 177 152 176 133 154 136 140 134 141 130 168 152 163 184 199 199 194 195 183 256 191 197 205 203 175 215 233 274 271 273
337 344 342 346 345 347 347 347 343 339 339 349 350 339 168 143 172 153 132 86 18 117 127 143 133 188 160 168 164 180 182 204 209 201 204 190 264 211 183 222 228 221 277 196 203 256 249
341 344 344 348 348 351 349 351 343 341 341 350 344 326 166 184 155 155 128 94 107 134 125 129 133 142 154 165 175 180 176 193 207 194 193 169 195 145 148 210 205 195 220 217 274 244 259
344 346 346 349 350 350 353 351 350 343 343 349 342 8 89 130 99 95 123 215 123 127 63 105 103 104 145 160 175 186 201 238 178 155 190 195 204 244 233 240 232 228 232 223 234 238 240
345 347 348 350 351 354 356 354 354 347 345 341 330 32 143 125 98 95 157 84 74 121 94 109 103 86 144 155 159 187 190 206 176 183 176 164 213 279 246 182 219 237 241 237 237 263 243
346 348 351 351 356 353 352 356 359 351 0 9 352 86 58 20 92 133 127 103 118 58 71 73 102 95 122 145 164 173 212 219 193 205 185 182 213 230 260 281 332 257 258 247 229 244 255
348 351 353 350 357 355 357 358 4 1 20 26 354 68 125 140 158 132 90 117 135 119 71 70 96 136 151 148 159 204 201 210 171 202 193 192 251 238 255 271 277 269 270 272 244 238 239
351 351 355 349 354 355 357 359 6 7 17 30 22 11 359 90 153 145 132 159 145 97 133 126 111 168 173 161 193 191 209 211 225 186 197 210 269 280 283 277 268 277 275 277 263 247 244
348 351 350 351 352 357 359 0 8 14 15 12 359 353 306 179 136 171 160 151 159 125 185 60 177 177 195 232 250 244 236 258 244 183 199 207 220 291 272 318 309 278 276 306 268 228 238
351 349 351 352 353 358 360 358 5 11 14 0 352 341 323 143 190 193 173 162 167 196 111 92 124 179 86 182 286 252 249 248 242 239 217 205 180 232 287 305 286 315 324 306 303 282 250
353 351 350 351 352 357 358 356 1 359 7 358 5 358 300 274 198 207 189 172 147 146 221 253 169 183 289 277 273 305 216 218 232 231 231 228 245 273 276 297 278 313 334 300 330 312 347
353 350 347 348 350 349 352 354 352 359 4 8 52 18 320 293 211 190 191 194 198 208 233 231 239 247 245 244 230 268 279 301 171 168 9 228 222 218 271 305 296 310 291 306 152 42 20
354 350 350 353 351 348 352 350 346 356 359 357 6 4 330 274 277 186 188 184 177 157 127 99 205 188 185 187 221 232 257 317 259 220 175 152 183 226 244 259 276 296 318 281 357 343 350
349 348 347 341 338 343 339 334 340 348 355 348 345 354 4 307 298 192 210 174 148 171 170 147 160 199 170 212 215 212 235 253 264 251 195 194 181 202 201 237 286 63 299 12 338 323 342
338 341 340 341 344 338 332 326 330 341 342 343 334 334 337 242 286 238 216 221 228 240 192 167 230 204 171 202 216 285 229 227 281 268 174 231 230 260 232 249 351 286 274 296 314 301 310